FENGYUN 1C DEB, 31028

Orbit data source: Space-Track

FENGYUN 1C DEB, 31028 is space debris in SSO originally from a launch on Mon, 10 May 1999 UTC launched from the Taiyaun Space Center, China (TSC). Fengyun 1C debris stems from the Chinese weather satellite Fengyun-1C, which was intentionally destroyed by a Chinese anti-satellite missile in 2007. This event dramatically increased the amount of space debris, with thousands of trackable fragments posing hazards to satellites and human spaceflight. The Fengyun 1C debris cloud has become a focal point in discussions about space sustainability and the need for international regulations to prevent the creation of new debris.

Loading next visibility...
Identifier
31028, 1999-025BDW
Orbit
SSO
Country
Flag of CNCN / PRC
Related business
Manufacturer
Unknown
Mission
Spacecraft
Bus & Motor
Unknown
Mass
Unknown
Launch date (UTC)
1999-05-10 (27 years ago)
Launch vehicle
Unknown
Launch site
Taiyaun Space Center, China (TSC)
Object type
Payload
Rocket body
Debris
Shape & HBR
Unknown shape, 0.1 m
Radar Cross Section
Small (<0.1 m²)

Expand to show TLE details & history
Last TLE update: 5 days ago

TLE from 5 days ago
0 FENGYUN 1C DEB
1 31028U 99025BDW 26119.57817257  .00000249  00000-0  21525-3 0  9993
2 31028  98.7147  47.5541 0163918 276.8804  81.3733 13.89179064639170
Epoch: 2026-04-29T13:52Z
TLE epoch observation values (Epoch: 2026-04-29T13:52:34.110Z)
Latitude
0.00008°
Longitude
-18.12516°
Altitude
918.333 km
Speed
7.401 km/s
True Right ascension
03h 10m 12s
True Declination
0° 00' 00"
Sunlit
Object was in daylight at epoch
Visualization orbit readout
Latitude
Unknown
Longitude
Unknown
Altitude
Unknown
Speed
Unknown
Apparent Right ascension
Unknown
Apparent Declination
Unknown
Sunlit
N/A
Visualization observer readout
Local Sidereal Time
15:04:26
Azimuth
Unknown
Elevation
Unknown
Doppler factor
Unknown
Orbital elements
Apogee altitude
1,048.481 km
Perigee altitude
808.936 km
Semi-major axis
7,306.845 km
Eccentricity
0.01639
Inclination
98.7147°
RAAN
47.5541°
Arg. of periapsis
276.8804°
True anomaly
83.23581°
Mean anomaly
81.3733°
Eccentric anomaly
82.30402°
Mean motion
3.47495 °/min
Orbital period
103.6 mins
BSTAR
0.00021525
Loading maneuver chart data...
Computing Atmospheric mass density...
Loading historical data...
Loading historical data...
Loading historical data...
Loading historical data...
Loading historical data...
Loading historical data...
Loading historical data...

Documentation

Showing up to 5 results
|